Seldovia, AK

8:32 PM AKDT on March 22, 2017 (GMT -0800)
Seldovia

Weather History for PASO - April, 2013

Change the Weather History Date:

Thursday, April 18, 2013

  Actual Average (PAHO) Record (PAHO)
Temperature  
Mean Temperature 31 °F -  
Max Temperature 39 °F 43 °F 61 °F (1965)
Min Temperature 23 °F 30 °F 10 °F (1948)
Degree Days  
Heating Degree Days 34    
Moisture  
Dew Point 20 °F    
Average Humidity 63    
Maximum Humidity 78    
Minimum Humidity 42    
Precipitation  
Precipitation 0.00 in - - ()
Sea Level Pressure  
Sea Level Pressure 30.15 in    
Wind  
Wind Speed 2 mph (North)    
Max Wind Speed 10 mph    
Max Gust Speed -    
Visibility 10 miles    
Events      
Averages and records for this station are not official NWS values.
T = Trace of Precipitation, MM = Missing Value Source: NWS Daily Summary

Daily Weather History Graph

Daily Weather History Graph

Search for Another Location

Airport or City:

Trip Planner

Search our weather history database for the weather conditions in past years. The results will help you decide how hot, cold, wet, or windy it might be!

Date:

Astronomy

Apr. 18, 2013 Rise Set
Actual Time 6:41 AM AKDT 9:31 PM AKDT
Civil Twilight 5:55 AM AKDT 10:18 PM AKDT
Nautical Twilight 4:53 AM AKDT 11:21 PM AKDT
Astronomical Twilight 3:20 AM AKDT 12:59 AM AKDT
Moon 12:50 PM AKDT (4/18) 4:09 AM AKDT (4/18)
Length of Visible Light 16h 22m
Length of Day
14h 49m
First Quarter, 53% of the Moon is Illuminated
Apr 18
First Quarter
Apr 25
Full
May 2
Last Quarter
May 9
New
May 17
First Quarter

Hourly Weather History & Observations

Time (AKDT) Temp. Windchill Dew Point Humidity Pressure Visibility Wind Dir Wind Speed Gust Speed Precip Events Conditions
12:53 AM 27.0 °F - 19.0 °F 72% 30.17 in 10.0 mi Calm Calm - N/A   Clear
1:53 AM 26.1 °F - 19.0 °F 75% 30.17 in 10.0 mi Calm Calm - N/A   Clear
2:53 AM 26.1 °F - 18.0 °F 71% 30.17 in 10.0 mi Calm Calm - N/A   Clear
3:53 AM 25.0 °F - 18.0 °F 75% 30.16 in 10.0 mi Calm Calm - N/A   Clear
4:53 AM 24.1 °F - 18.0 °F 77% 30.16 in 10.0 mi Calm Calm - N/A   Clear
5:53 AM 24.1 °F - 17.1 °F 75% 30.15 in 10.0 mi Calm Calm - N/A   Clear
6:53 AM 23.0 °F - 17.1 °F 78% 30.15 in 10.0 mi Calm Calm - N/A   Clear
7:53 AM 23.0 °F - 16.0 °F 74% 30.15 in 10.0 mi Calm Calm - N/A   Clear
8:53 AM 26.1 °F - 18.0 °F 71% 30.15 in 10.0 mi Calm Calm - N/A   Clear
9:53 AM 34.0 °F 31.0 °F 19.9 °F 56% 30.16 in 10.0 mi Variable 3.5 mph - N/A   Clear
10:53 AM 37.0 °F 32.4 °F 16.0 °F 42% 30.16 in 10.0 mi Variable 5.8 mph - N/A   Clear
11:53 AM 37.0 °F 31.6 °F 19.9 °F 50% 30.15 in 10.0 mi North 6.9 mph - N/A   Clear
12:53 PM 36.0 °F 30.3 °F 21.9 °F 57% 30.15 in 10.0 mi Variable 6.9 mph - N/A   Clear
1:53 PM 37.9 °F 32.7 °F 21.0 °F 51% 30.15 in 10.0 mi NNE 6.9 mph - N/A   Clear
2:53 PM 39.0 °F 34.0 °F 19.9 °F 46% 30.15 in 10.0 mi North 6.9 mph - N/A   Clear
3:53 PM 39.0 °F 32.3 °F 21.0 °F 49% 30.14 in 10.0 mi NNE 10.4 mph - N/A   Clear
4:53 PM 39.0 °F 32.8 °F 23.0 °F 53% 30.13 in 10.0 mi NNE 9.2 mph - N/A   Clear
5:53 PM 37.9 °F 33.5 °F 24.1 °F 57% 30.12 in 10.0 mi Variable 5.8 mph - N/A   Clear
6:53 PM 37.9 °F 32.7 °F 26.1 °F 62% 30.11 in 10.0 mi North 6.9 mph - N/A   Clear
7:53 PM 37.9 °F 32.7 °F 21.0 °F 51% 30.12 in 10.0 mi North 6.9 mph - N/A   Clear
8:53 PM 37.0 °F 34.5 °F 23.0 °F 57% 30.12 in 10.0 mi North 3.5 mph - N/A   Clear
9:53 PM 36.0 °F 30.3 °F 21.9 °F 57% 30.13 in 10.0 mi NNE 6.9 mph - N/A   Clear
10:53 PM 30.0 °F - 21.9 °F 72% 30.14 in 10.0 mi Calm Calm - N/A   Clear
11:53 PM 28.0 °F - 21.9 °F 78% 30.14 in 10.0 mi Calm Calm - N/A   Clear